Content
SEND FEEDBACK

Daily
Averages
Monthly
Summary
United States of America

FORT LEE, NEW JERSEY


Home > North America > United States > New Jersey
Elevation: 128 feet     Latitude: 40 46N     Longitude: 073 58W

WEATHER
 
SELECT A DAY
Number of Records: 152,146;   Date Range: 11/1/95 - 11/22/14
 
SHARE

PRINT THIS DATA

[ ← Previous Day ]
WEATHER ALMANAC - MARCH 29, 2014
[ Next Day → ]
[ °C ]   °F
Weather ElementAverageHighLow
Temperature46.5 °F57.9 °F (1:51 am)43 °F (9:51 pm)
Dewpoint41.7 °F48 °F (1:51 am)37.9 °F (5:51 am)
Humidity84.1 %93 % (5:21 pm)63 % (5:51 am)
Barometer30.01 in30.19 in (9:51 am)29.70 in (11:51 pm)
Wind Speed11.7 mph23 mph (11:24 pm)
Wind Gust34.5 mph (11:12 pm)
Weather ElementAverage
Visibility4.8 mi
Wind DirectionENE (61.9 °)

Weather ElementTotal
Precipitation1.97 in
Heating Degree Days14.6 (Base 65)
Growing Degree Days0.5 (Base 50)
Averaged from 36 records on March 29, 2014
WEATHER CONDITIONS BREAKOUT
WIND DIRECTION BREAKOUT
WEATHER BY HOUR - MARCH 29, 2014
[ °C ]   °F
Local TimeTemperatureDewpointHumidityBarometerVisibilityWind DirectionWind SpeedGust SpeedPrecipitationEventsConditions
1:51 AM57.9 °F48.0 °F70 %30.09 in10.0 miVariable4.6 mphClear
2:51 AM55.0 °F48.0 °F77 %30.11 in10.0 miCalmClear
3:51 AM53.1 °F44.1 °F71 %30.11 in10.0 miVariable3.5 mphClear
4:51 AM50.0 °F39.9 °F68 %30.12 in10.0 miVariable5.8 mphClear
5:51 AM50.0 °F37.9 °F63 %30.13 in10.0 miNorth (360°)4.6 mphClear
6:51 AM50.0 °F39.0 °F66 %30.15 in10.0 miNE (50°)6.9 mphScattered Clouds
7:51 AM50.0 °F39.9 °F68 %30.17 in10.0 miNE (50°)10.4 mphOvercast
8:51 AM48.9 °F39.0 °F69 %30.18 in10.0 miNE (40°)10.4 mph16.1 mphOvercast
9:51 AM48.9 °F37.9 °F66 %30.19 in10.0 miNE (40°)9.2 mphOvercast
10:51 AM48.0 °F41.0 °F77 %30.19 in6.0 miVariable6.9 mph0.02 inRainLight Rain
11:51 AM46.9 °F42.1 °F83 %30.17 in6.0 miENE (70°)9.2 mph16.1 mph0.01 inRainLight Rain
12:51 PM46.9 °F42.1 °F83 %30.13 in6.0 miEast (80°)10.4 mph18.4 mph0.03 inRainLight Rain
1:32 PM46.0 °F42.1 °F86 %30.14 in4.0 miVariable6.9 mph18.4 mph0.02 inRainLight Rain
1:39 PM46.0 °F42.1 °F86 %30.16 in3.0 miVariable3.5 mph0.03 inRainRain
1:51 PM45.0 °F42.1 °F90 %30.11 in1.5 miEast (90°)10.4 mph18.4 mph0.07 inRainRain
1:59 PM45.0 °F42.1 °F90 %30.13 in3.0 miEast (80°)8.1 mph0.01 inRainLight Rain
2:08 PM45.0 °F42.1 °F90 %30.12 in2.5 miENE (70°)9.2 mph0.03 inRainLight Rain
2:51 PM46.0 °F43.0 °F89 %30.07 in4.0 miVariable4.6 mph0.11 inRainLight Rain
3:15 PM46.0 °F43.0 °F89 %30.08 in2.5 miENE (60°)10.4 mph0.02 inRainLight Rain
3:51 PM46.0 °F43.0 °F89 %30.03 in2.5 miEast (80°)12.7 mph20.7 mph0.06 inRainRain
4:51 PM45.0 °F42.1 °F90 %29.98 in2.5 miENE (70°)10.4 mph24.2 mph0.10 inRainLight Rain
5:21 PM44.1 °F42.1 °F93 %29.99 in4.0 miENE (60°)13.8 mph21.9 mph0.04 inRainLight Rain
5:51 PM44.1 °F41.0 °F89 %29.96 in3.0 miEast (80°)9.2 mph23.0 mph0.07 inRainLight Rain
6:42 PM44.1 °F42.1 °F93 %29.96 in2.0 miENE (70°)16.1 mph20.7 mph0.05 inRainRain
6:51 PM44.1 °F42.1 °F93 %29.94 in1.8 miENE (70°)17.3 mph0.07 inRainRain
7:02 PM45.0 °F42.1 °F90 %29.95 in3.0 miEast (80°)15.0 mph24.2 mph0.03 inRainRain
7:51 PM45.0 °F42.1 °F90 %29.90 in4.0 miENE (70°)17.3 mph24.2 mph0.09 inRainLight Rain
8:51 PM44.1 °F41.0 °F89 %29.87 in4.0 miENE (70°)19.6 mph27.6 mph0.08 inRainRain
9:51 PM43.0 °F41.0 °F93 %29.84 in2.5 miEast (80°)18.4 mph27.6 mph0.16 inRainRain
10:27 PM43.0 °F41.0 °F93 %29.81 in3.0 miENE (70°)20.7 mph31.1 mph0.10 inRainRain
10:51 PM43.0 °F41.0 °F93 %29.77 in2.0 miEast (80°)16.1 mph29.9 mph0.19 inRainHeavy Rain
10:58 PM43.0 °F41.0 °F93 %29.78 in1.8 miENE (70°)18.4 mph27.6 mph0.04 inRainRain
11:05 PM44.1 °F41.0 °F89 %29.77 in2.0 miENE (70°)18.4 mph28.8 mph0.06 inRainRain
11:12 PM44.1 °F41.0 °F89 %29.77 in1.5 miENE (70°)21.9 mph34.5 mph0.10 inRainHeavy Rain
11:24 PM44.1 °F41.0 °F89 %29.75 in2.5 miENE (70°)23.0 mph33.4 mph0.14 inRainRain
11:51 PM44.1 °F42.1 °F93 %29.70 in2.0 miEast (80°)18.4 mph25.3 mph0.24 inRainRain
Hourly data recorded from KNYC, located miles away from Fort Lee, New Jersey







STORIES FROM OUR PARTNERS